Dewpoint
20 23 22 22 23 25 27 26 27 27 27 28 29 29 30 29 29 30 30 30 31 31 32 32 33 33 34
19 22 23 24 25 25 25 26 26 25 26 27 27 28 26 27 27 27 28 28 29 29 30 31 32 32 33
18 24 25 25 25 26 25 24 24 23 24 25 25 25 24 24 25 26 26 26 26 28 29 30 31 31 31
21 23 24 26 26 24 21 22 23 23 23 24 22 21 21 22 23 23 23 24 26 29 29 30 30 30 30
22 23 23 24 23 23 22 23 22 22 21 18 17 18 20 20 20 20 23 25 27 27 28 29 30 29 29
22 21 22 25 23 22 23 21 18 22 20 17 18 18 18 18 19 21 23 25 26 27 28 28 27 28 28
21 23 24 23 23 24 23 22 21 19 19 15 14 16 16 16 19 21 24 26 26 26 25 26 27 28 27
26 26 25 24 25 24 23 22 20 18 17 14 16 16 17 18 20 21 23 23 22 23 24 25 26 26 26
27 27 28 25 23 22 17 17 15 13 18 17 17 18 16 16 18 21 19 21 21 22 23 24 25 26 26
24 21 19 19 21 20 20 16 17 15 17 18 18 18 16 17 17 18 19 19 20 21 22 23 24 24 25
20 18 19 18 18 19 20 20 18 18 18 20 19 18 18 16 17 17 17 18 19 20 21 22 23 23 23
18 17 16 17 19 20 21 21 22 21 21 21 19 18 17 16 15 16 17 19 19 19 20 21 21 23 23
17 17 18 19 20 21 21 20 19 19 19 20 19 18 18 17 16 17 18 18 19 19 19 20 21 22 22
18 18 19 19 19 19 17 18 17 16 16 18 18 18 17 18 18 17 17 17 18 19 20 21 21 22 24
17 17 17 17 16 17 17 17 14 14 14 16 18 19 19 18 17 16 16 17 18 19 19 20 22 23 24
17 17 15 15 15 17 15 15 14 14 14 16 17 16 15 15 16 16 17 17 18 20 21 21 21 22 24
15 14 14 14 14 14 14 14 14 15 16 16 15 15 13 11 14 16 17 18 19 19 20 21 21 22 24
Wind_Speed
3 1 3 6 8 9 11 13 12 15 20 23 23 25 23 25 28 30 32 34 35 35 35 35 35 36 36
3 3 6 4 8 12 12 10 12 16 20 23 22 21 23 27 30 33 34 35 35 35 34 34 34 35 36
4 3 2 2 4 7 9 13 9 15 21 19 18 22 26 31 31 33 34 35 35 35 34 33 35 37 38
6 5 4 3 4 8 13 7 18 12 15 15 20 25 27 29 29 32 34 34 33 32 34 36 37 39 40
7 4 4 4 6 4 9 17 19 4 6 18 15 19 17 23 25 31 30 32 34 35 37 38 39 40 42
8 8 6 4 4 8 9 11 9 2 13 25 17 18 16 17 26 35 34 32 33 36 37 39 41 43 44
11 8 4 3 3 9 8 9 11 20 15 20 13 19 16 18 30 35 33 29 29 33 40 43 44 42 44
9 6 5 5 5 5 8 11 14 16 8 11 9 21 21 22 28 26 23 26 33 40 39 40 43 44 45
8 6 5 3 3 3 8 11 9 10 4 6 12 29 21 18 12 13 26 35 32 35 38 40 43 43 35
6 4 2 2 3 0 3 9 9 8 3 14 13 16 17 9 11 21 16 25 32 35 39 38 40 31 27
8 4 3 2 2 3 4 5 8 10 11 11 12 14 10 21 17 21 23 24 27 28 31 35 36 38 35
8 5 2 1 3 5 6 9 12 16 18 14 11 17 19 28 24 24 28 27 24 29 25 35 40 37 40
7 4 1 1 4 6 6 9 14 16 13 13 15 17 16 20 25 32 38 29 30 29 33 32 34 33 36
6 3 1 1 3 4 7 9 11 14 11 11 14 16 19 20 25 38 28 22 37 34 34 34 36 30 30
6 3 1 3 4 5 5 8 8 13 19 19 17 16 16 22 28 28 31 32 28 33 39 38 37 30 31
5 3 1 3 6 7 6 8 13 17 19 18 20 20 18 13 23 27 24 29 33 34 32 34 40 36 32
5 3 1 2 5 9 10 10 13 15 17 17 19 19 27 29 16 14 29 31 33 32 30 32 37 40 37
Wind_Direction
214 219 262 263 286 310 309 307 303 313 311 310 311 310 311 308 307 306 304 303 302 301 303 305 303 302 301
199 226 234 267 294 306 308 297 301 303 304 309 309 307 309 308 307 305 303 301 302 304 307 304 304 304 302
205 206 264 257 304 298 300 301 295 297 300 303 304 302 308 306 304 301 299 300 305 307 307 306 303 302 302
233 248 241 259 273 310 324 306 309 298 288 292 300 300 304 301 300 298 299 303 304 304 304 303 303 301 299
227 230 266 296 322 314 309 313 310 250 312 306 308 302 294 292 293 292 298 302 302 305 303 301 300 299 299
218 237 261 281 296 313 322 338 322 281 332 306 306 291 289 288 291 295 300 300 299 298 298 299 299 300 298
215 215 247 221 298 308 310 303 284 294 312 299 298 290 298 292 292 293 295 295 294 296 299 301 300 300 302
197 188 218 249 242 272 302 300 294 286 278 285 307 303 306 288 282 289 290 295 301 300 299 301 302 304 305
172 180 211 282 311 327 321 322 317 310 338 317 316 318 304 283 273 272 302 300 301 299 300 305 307 306 306
145 143 104 58 36 93 293 308 318 311 280 342 326 346 320 258 308 303 294 300 304 302 304 305 309 308 301
157 155 135 73 14 316 276 257 275 258 278 335 307 315 295 306 310 310 304 312 308 305 306 305 307 311 305
155 155 129 27 335 310 291 276 256 258 284 289 278 296 298 304 304 312 311 311 309 308 308 313 310 309 305
152 143 125 325 303 300 292 284 289 286 280 274 269 281 285 289 297 307 314 321 314 314 316 313 308 311 309
123 120 102 326 319 324 303 315 309 307 305 285 290 285 290 294 298 298 300 299 308 307 308 308 306 304 299
128 130 93 351 331 310 292 314 301 298 305 315 310 292 290 290 290 286 297 298 300 306 312 308 304 305 303
128 129 118 330 321 320 313 309 309 307 308 312 317 320 316 288 267 292 299 299 307 307 305 305 306 308 307
142 151 189 330 336 332 327 316 312 304 308 315 319 324 324 320 305 299 312 305 307 310 310 308 304 305 307